Regional Weather Roundup
Issued by NWS Sterling, VA

Home | Current Version | Previous Version | Text Only | Print | Product List | Glossary On
Versions: 1 2 3 4 5 6 7 8 9 10 11 12 13 14 15 16 17 18 19 20 21 22 23 24 25 26 27
000
ASUS41 KLWX 151011
RWRLWX

REGIONAL WEATHER ROUNDUP
NATIONAL WEATHER SERVICE BALTIMORE MD/WASHINGTON DC
500 AM EST FRI DEC 15 2017

Note: "FAIR" indicates few or no clouds below 12,000 feet
with no significant weather and/or obstructions to visibility.
 TC=TEMPERATURE CELSIUS

 * =Non NWS site. Station does not report precipitation (e.g. rain,
    snow, etc.), thunder, or fog.

DCZ001-MDZ009-015-VAZ040>042-051-053>054-151100-
WASHINGTON METRO

CITY           SKY/WX    TMP DP  RH WIND       PRES   REMARKS
WASHINGTON NAT CLOUDY    30  11  45 E7        30.12F
DULLES         CLOUDY    23  18  81 CALM      30.10F
ANDREWS AFB    CLOUDY    27  11  51 E5        30.12S
FT BELVOIR     CLOUDY    29  10  45 CALM      30.11F
QUANTICO       CLOUDY    32  14  47 E10       30.12F WCI  24
COLLEGE PARK*  CLOUDY    26  11  52 CALM      30.12F
LEESBURG*      CLOUDY    25  21  86 CALM      30.11S
MANASSAS*      CLOUDY    27  22  81 CALM      30.11F
GAITHERSBURG*  MOCLDY    22  13  68 CALM      30.09F

$$

MDZ006>007-011-014-151100-
BALTIMORE METRO

CITY           SKY/WX    TMP DP  RH WIND       PRES   REMARKS
BWI AIRPORT    MOCLDY    24  12  60 CALM      30.11F
MD SCIENCE CTR   N/A     29  11  47 MISG      30.13S
MARTIN STATE   CLOUDY    27  18  69 CALM      30.14F
ANNAPOLIS      CLOUDY    29  16  58 E7        30.12F
FORT MEADE*    PTCLDY    23  14  68 CALM      30.14F

$$

MDZ012-015-019>023-151100-
MARYLAND EASTERN SHORE

CITY           SKY/WX    TMP DP  RH WIND       PRES   REMARKS
OCEAN CITY     MOCLDY    28  18  66 N6        30.12S
SALISBURY      CLOUDY    27  15  61 CALM      30.11F
BAY BRIDGE AP* CLOUDY    27   9  46 MISG      30.13F
CAMBRIDGE*     CLOUDY    28  10  47 N5        30.12F
EASTON*        PTCLDY    28   9  45 E5        30.16S

$$

MDZ017>025-151100-
SOUTHERN MARYLAND

CITY           SKY/WX    TMP DP  RH WIND       PRES   REMARKS
PATUXENT RIVER CLOUDY    30  14  51 E8        30.11F WCI  22
ST INIGOES     CLOUDY    31  15  52 NE7       30.11F
LEONARDTOWN*   CLOUDY    30  14  51 NE3       30.12F

$$

MDZ003>005-151100-
NORTH CENTRAL MARYLAND

CITY           SKY/WX    TMP DP  RH WIND       PRES   REMARKS
FREDERICK*     CLOUDY    27  14  59 CALM      30.13F
HAGERSTOWN APT CLOUDY    26  11  52 S6        30.07S
WESTMINSTER*   CLOUDY    25  14  63 CALM      30.06F

$$

MDZ501>502-151100-
WESTERN MARYLAND

CITY           SKY/WX    TMP DP  RH WIND       PRES   REMARKS
OAKLAND*       CLOUDY    19  18  93 S3        29.84F
CUMBERLAND*    NOT AVBL

$$

VAZ025>031-151100-
SHENANDOAH VALLEY

CITY           SKY/WX    TMP DP  RH WIND       PRES   REMARKS
WINCHESTER*    CLOUDY    23  14  68 CALM      30.06F
FRONT ROYAL*   CLOUDY    25  16  68 MISG      30.05F
LURAY*         CLOUDY    28  18  64 CALM      30.04F
NEW MARKET*    CLOUDY    25  14  63 NE5       30.03S
STAUNTON*      CLOUDY    27  19  69 CALM      30.03F
WAYNESBORO*    CLOUDY    27  17  66 SE7       30.01S

$$

WVZ021-048>050-054>055-151100-
EASTERN WEST VIRGINIA PANHANDLE

CITY           SKY/WX    TMP DP  RH WIND       PRES   REMARKS
MARTINSBURG    CLOUDY    24  16  71 CALM      30.07F
PETERSBURG*    CLOUDY    25  18  73 CALM      30.02S

$$

VAZ036>039-050-151100-
CENTRAL FOOTHILLS

CITY           SKY/WX    TMP DP  RH WIND       PRES   REMARKS
CHARLOTTESVILL CLOUDY    30  14  51 NE6       30.07F
CULPEPER*      CLOUDY    29  18  63 CALM      30.11S
ORANGE*        CLOUDY    28  18  64 CALM      30.09S
GORDONSVILLE*  CLOUDY    29  16  59 CALM      30.08F
WARRENTON*     CLOUDY    28  20  71 CALM      30.09F

$$

VAZ055>057-151100-
NORTH AND CENTRAL PIEDMONT

CITY           SKY/WX    TMP DP  RH WIND       PRES   REMARKS
FREDERICKSBRG* CLOUDY    31  19  61 CALM      30.10S
STAFFORD*      CLOUDY    30  18  60 CALM      30.14S

$$

NCZ024-NYZ072-PAZ021-071-VAZ022-071-151100-
OTHER REGIONAL OBSERVATIONS

CITY           SKY/WX    TMP DP  RH WIND       PRES   REMARKS
NEW YORK CITY  CLEAR     20   8  60 VRB3      30.11S
PHILADELPHIA   CLOUDY    25   7  46 CALM      30.13F
PITTSBURGH     CLOUDY    16  11  80 CALM      29.97F
ROANOKE        CLOUDY    31  19  61 SE6       30.04F
RICHMOND       CLOUDY    34  18  52 NE7       30.08S
RALEIGH        CLOUDY    35  27  72 E6        30.00F

$$

ANZ530>537-151100-
MARINE OBSERVATIONS

STATION/POSITION TIME  TEMP    WIND        PRES
                       AIR SEA DIR/SP/G
                 (UTC) (F)     (DEG/KT/KT) (MB)
THOMAS PT LIGHT  1000   28 44   70/ 10/ 13   N/A
BALT KEY BRIDGE  0948   27      50/  7/  8 1020.1F
COVE POINT       0948   29      80/ 11/ 14 1020.2F
LEWISETTA        0948   33 41   80/  9/ 14 1019.3F
SOLOMONS ISLAND  0948   31 44   50/  7/  9 1019.2F
PINEY POINT      0948           80/  7/  9   N/A

$$





USA.gov is the U.S. government's official web portal to all federal, state and local government web resources and services.